EW5069 Weather Reports


Display with metric or nautical units.
time (UTC)temp
F
wind
direction
speed
MPH
gust
MPH
rain 1hr
in
rain 24hr
in
rain mn
in
humidity
%
barometer
mb
20260506013038 46 360 0.0 0.0 0.02 0.57 0.57 90 1008.9
20260506011541 46 360 0.0 0.0 0.01 0.56 0.56 91 1008.9
20260506010051 46 360 0.0 0.0 0.02 0.56 0.56 90 1008.8
20260506004534 46 360 0.0 0.0 0.03 0.56 0.56 90 1008.8
20260506003034 46 205 0.0 0.0 0.04 0.56 0.56 91 1008.8
20260506001532 46 188 0.0 0.0 0.05 0.56 0.56 91 1008.6
20260506000033 47 360 0.0 0.0 0.04 0.55 0.55 90 1008.1
20260505234531 47 213 0.0 0.0 0.04 0.54 0.54 90 1008.4
20260505233039 47 133 0.0 0.0 0.02 0.52 0.52 91 1008.3
20260505231530 47 289 0.0 0.0 0.01 0.51 0.51 90 1008.5
20260505230038 47 328 0.0 0.0 0.01 0.51 0.51 90 1008.5
20260505224532 47 328 0.0 0.0 0.01 0.50 0.50 90 1008.9
20260505223028 46 298 0.0 0.0 0.02 0.50 0.50 90 1008.8
20260505221528 46 309 0.0 0.0 0.02 0.50 0.50 90 1008.9
20260505220028 46 327 0.0 0.0 0.03 0.50 0.50 90 1008.6
20260505214527 46 326 0.0 0.0 0.02 0.49 0.49 90 1008.9
20260505213028 46 340 0.0 0.0 0.02 0.48 0.48 90 1008.7
20260505211524 46 360 0.0 0.0 0.04 0.48 0.48 90 1008.8
20260505210023 46 336 0.0 0.0 0.03 0.47 0.47 90 1008.8
20260505204522 47 350 0.0 0.0 0.03 0.47 0.47 90 1008.7
20260505203030 47 348 0.0 0.0 0.02 0.46 0.46 90 1008.8
20260505201519 48 323 0.0 0.0 0.00 0.44 0.44 88 1008.6
20260505200016 49 360 0.0 0.0 0.01 0.44 0.44 89 1008.3
20260505194516 48 5 0.0 0.0 0.01 0.44 0.44 89 1008.1
20260505193016 48 26 0.0 0.0 0.02 0.44 0.44 90 1008.1
20260505191515 48 360 0.0 0.0 0.03 0.44 0.44 90 1008.1
20260505190024 49 355 0.0 0.0 0.03 0.43 0.43 90 1008.2
20260505184513 48 355 0.0 0.0 0.06 0.43 0.43 89 1008.4
20260505183012 48 355 0.0 0.0 0.07 0.42 0.42 89 1008.5
20260505181511 48 355 0.0 0.0 0.09 0.41 0.41 88 1008.4
20260505180007 49 331 0.0 0.0 0.10 0.40 0.40 88 1008.5
20260505174506 49 22 0.0 0.0 0.09 0.37 0.37 87 1008.7
20260505173004 50 89 0.0 0.0 0.08 0.35 0.35 86 1008.5
20260505171502 50 355 0.0 0.0 0.05 0.32 0.32 84 1008.3
20260505170000 51 88 0.0 0.0 0.03 0.30 0.30 82 1008.3
20260505164600 51 103 0.0 0.0 0.01 0.28 0.28 81 1008.2
20260505163059 51 42 0.0 0.0 0.00 0.27 0.27 78 1008.1
20260505161621 51 355 0.0 0.0 0.00 0.27 0.27 78 1008.2
20260505153055 52 360 0.0 0.0 0.00 0.27 0.27 76 1008.4
20260505151603 52 346 0.0 0.0 0.00 0.27 0.27 76 1008.4
20260505124538 57 360 0.0 0.0 0.00 0.27 0.27 90 1006.3
20260505123033 56 360 0.0 0.0 0.00 0.27 0.27 90 1006.5
20260505121536 56 194 0.0 0.0 0.00 0.27 0.27 90 1006.1
20260505120053 55 360 0.0 0.0 0.00 0.27 0.27 90 1005.6
20260505114525 55 173 0.0 0.0 0.00 0.27 0.27 90 1005.2
20260505113027 55 211 0.0 0.0 0.00 0.27 0.27 90 1005.7
20260505111521 54 360 0.0 0.0 0.00 0.27 0.27 90 1006.0
20260505101520 54 360 0.0 0.0 0.00 0.27 0.27 90 1005.0
20260505100020 54 360 0.0 0.0 0.00 0.27 0.27 90 1004.7
20260505094509 54 360 0.0 0.0 0.00 0.27 0.27 90 1004.3
20260505093008 54 360 0.0 0.0 0.00 0.27 0.27 90 1004.1
20260505091520 54 221 0.0 0.0 0.00 0.27 0.27 90 1003.9
20260505090012 55 198 0.0 0.0 0.00 0.27 0.27 89 1003.5
20260505084502 56 360 0.0 0.0 0.00 0.27 0.27 89 1003.8
20260505083001 56 360 0.0 0.0 0.00 0.27 0.27 89 1003.3
20260505081504 56 360 0.0 0.0 0.00 0.27 0.27 88 1002.5
20260505080100 56 360 0.0 0.0 0.00 0.27 0.27 88 1002.6
20260505074602 56 159 0.0 0.0 0.00 0.27 0.27 89 1002.6
20260505073111 56 360 0.0 0.0 0.01 0.27 0.27 90 1003.9
20260505071601 56 360 0.0 0.0 0.03 0.27 0.27 90 1003.7
20260505070057 55 360 0.0 0.0 0.07 0.27 0.27 90 1003.6
20260505064556 55 360 0.0 0.0 0.11 0.27 0.27 90 1003.9
20260505063054 55 144 0.0 0.0 0.15 0.26 0.26 89 1003.5
20260505061556 56 144 0.0 0.0 0.16 0.24 0.24 89 1004.0
20260505060052 56 360 0.0 0.0 0.14 0.20 0.20 90 1005.0
20260505054609 56 360 0.0 0.0 0.13 0.16 0.16 89 1005.5
20260505053100 56 360 0.0 0.0 0.09 0.10 0.10 89 1005.3
20260505051545 57 360 0.0 0.0 0.08 0.08 0.08 88 1005.4
20260505041528 64 326 0.0 0.0 0.00 0.00 0.00 65 1003.6
20260505040024 66 360 0.0 0.0 0.00 0.00 0.00 62 1002.9
20260505034625 66 360 0.0 0.0 0.00 0.00 0.00 61 1002.2
20260505033024 66 184 0.0 0.0 0.00 0.00 0.00 61 1001.8
20260505031539 67 360 0.0 0.0 0.00 0.00 0.00 61 1001.9
20260505030023 67 360 0.0 0.0 0.00 0.00 0.00 61 1001.9
20260505024532 67 360 0.0 0.0 0.00 0.00 0.00 61 1001.8
20260505023027 67 360 0.0 0.0 0.00 0.00 0.00 60 1001.9
20260505021526 67 360 0.0 0.0 0.00 0.00 0.00 60 1002.1
20260505020029 67 360 0.0 0.0 0.00 0.00 0.00 59 1002.0
20260505014527 67 360 0.0 0.0 0.00 0.00 0.00 58 1001.8